Manchester, NH

11:51 AM EDT on July 21, 2017 (GMT -0400)
Manchester

Weather History for KMHT - December, 2011

Change the Weather History Date:

Friday, December 2, 2011

  Actual Average Record
Temperature  
Mean Temperature 38 °F 35 °F  
Max Temperature 48 °F 43 °F 66 °F (2013)
Min Temperature 27 °F 28 °F -1 °F (1989)
Degree Days  
Heating Degree Days 28 30  
Month to date heating degree days 59  
Since 1 July heating degree days 1353  
Cooling Degree Days 0 0  
Month to date cooling degree days 0  
Year to date cooling degree days 642  
Moisture  
Dew Point 24 °F    
Average Humidity 61    
Maximum Humidity 85    
Minimum Humidity 41    
Precipitation  
Precipitation 0.00 in 0.10 in 0.97 in (1981)
Month to date precipitation 0.20  
Year to date precipitation 41.50  
Snow  
Snow 0.00 in - - ()
Month to date snowfall  
Since 1 July snowfall  
Snow Depth -    
Sea Level Pressure  
Sea Level Pressure 30.35 in    
Wind  
Wind Speed 2 mph (West)    
Max Wind Speed 10 mph    
Max Gust Speed -    
Visibility 10 miles    
Events      
T = Trace of Precipitation, MM = Missing Value Source: NWS Daily Summary

Daily Weather History Graph

Daily Weather History Graph

Search for Another Location

Airport or City:

Trip Planner

Search our weather history database for the weather conditions in past years. The results will help you decide how hot, cold, wet, or windy it might be!

Date:

Astronomy

Dec. 02, 2011 Rise Set
Actual Time 6:57 AM EST 4:12 PM EST
Civil Twilight 6:26 AM EST 4:43 PM EST
Nautical Twilight 5:50 AM EST 5:19 PM EST
Astronomical Twilight 5:16 AM EST 5:53 PM EST
Moon 11:59 AM EST (12/2) No Moon Set
Length of Visible Light 10h 17m
Length of Day
9h 14m
First Quarter, 53% of the Moon is Illuminated
Dec 2
First Quarter
Dec 10
Full
Dec 17
Last Quarter
Dec 24
New
Jan 1
First Quarter

Hourly Weather History & Observations

Time (EST) Temp. Windchill Dew Point Humidity Pressure Visibility Wind Dir Wind Speed Gust Speed Precip Events Conditions
12:53 AM 30.9 °F - 21.0 °F 67% 30.32 in 10.0 mi Calm Calm - N/A   Clear
1:53 AM 30.0 °F - 21.9 °F 72% 30.33 in 10.0 mi Calm Calm - N/A   Clear
2:53 AM 30.0 °F - 23.0 °F 75% 30.34 in 10.0 mi Calm Calm - N/A   Clear
3:53 AM 28.9 °F - 24.1 °F 82% 30.33 in 10.0 mi Calm Calm - N/A   Clear
4:53 AM 28.0 °F - 23.0 °F 81% 30.34 in 10.0 mi Calm Calm - N/A   Clear
5:53 AM 28.0 °F - 24.1 °F 85% 30.35 in 10.0 mi Calm Calm - N/A   Clear
6:53 AM 27.0 °F - 23.0 °F 85% 30.35 in 10.0 mi Calm Calm - N/A   Clear
7:53 AM 28.9 °F - 25.0 °F 85% 30.35 in 10.0 mi Calm Calm - N/A   Clear
8:53 AM 30.9 °F - 26.1 °F 82% 30.35 in 10.0 mi Calm Calm - N/A   Clear
9:53 AM 37.0 °F - 25.0 °F 62% 30.36 in 10.0 mi Calm Calm - N/A   Clear
10:53 AM 39.9 °F 37.8 °F 24.1 °F 53% 30.33 in 10.0 mi SSE 3.5 mph - N/A   Clear
11:53 AM 43.0 °F 41.3 °F 25.0 °F 49% 30.31 in 10.0 mi WSW 3.5 mph - N/A   Clear
12:53 PM 46.0 °F 43.1 °F 25.0 °F 44% 30.28 in 10.0 mi SSW 5.8 mph - N/A   Mostly Cloudy
1:53 PM 48.0 °F - 25.0 °F 41% 30.26 in 10.0 mi South 5.8 mph - N/A   Mostly Cloudy
2:53 PM 48.0 °F - 25.0 °F 41% 30.27 in 10.0 mi WSW 5.8 mph - N/A   Overcast
3:53 PM 46.9 °F - 25.0 °F 42% 30.29 in 10.0 mi West 4.6 mph - N/A   Overcast
4:53 PM 46.0 °F 44.8 °F 26.1 °F 46% 30.32 in 10.0 mi WSW 3.5 mph - N/A   Overcast
5:53 PM 45.0 °F 42.6 °F 27.0 °F 49% 30.34 in 10.0 mi WNW 4.6 mph - N/A   Overcast
6:53 PM 44.1 °F 38.6 °F 23.0 °F 43% 30.37 in 10.0 mi West 10.4 mph - N/A   Scattered Clouds
7:53 PM 42.1 °F 37.7 °F 21.9 °F 45% 30.41 in 10.0 mi NW 6.9 mph - N/A   Partly Cloudy
8:53 PM 41.0 °F 36.4 °F 23.0 °F 49% 30.44 in 10.0 mi NNW 6.9 mph - N/A   Partly Cloudy
9:53 PM 37.9 °F 34.4 °F 24.1 °F 57% 30.46 in 10.0 mi NNW 4.6 mph - N/A   Partly Cloudy
10:53 PM 36.0 °F 32.1 °F 25.0 °F 64% 30.49 in 10.0 mi NNW 4.6 mph - N/A   Partly Cloudy
11:53 PM 35.1 °F - 26.1 °F 70% 30.50 in 10.0 mi Calm Calm - N/A   Partly Cloudy